Flag for Canada Weather past 2 weeks in Sarnia, Ontario, Canada

Now
66 °F

Passing clouds.


Feels Like: 66 °F
Forecast: 65 / 79 °F
Wind: 6 mph from South

Location: Sarnia Airport

Current Time: Aug 20, 2014 at 4:48:19 AM

Latest Report: Aug 20, 2014 at 4:00 AM


Visibility: 9 mi

Pressure: 29.78 "Hg

Humidity: 94%

Dew point: 64 °F

Location of SarniaLocation

Historic Weather in Sarnia — Graph

°F

Sarnia temperature yesterday

Maximum temperature yesterday: 79 °F (at 2:00 PM)
Minimum temperature yesterday: 61 °F (at 12:00 AM)
Average temperature yesterday: 68 °F

Past Weeks' High & Low Weather Summary

 TemperatureHumidityPressure
High79 °F (Aug 10, 3:00 PM)100% (Aug 9, 5:00 AM)30.19 "Hg (Aug 9, 5:00 AM)
Low50 °F (Aug 15, 6:00 AM)38% (Aug 15, 5:00 PM)29.61 "Hg (Aug 12, 12:00 AM)
Average65 °F79%29.97 "Hg
* Reported Aug 5 4:00 AM — Aug 20 4:00 AM, Sarnia, Weather by CustomWeather, © 2014

Note: Actual official high and low records may vary slightly from our data, if they occured in-between our weather recording intervals... More about our weather records

Advertising

Sarnia weather history for previous 24 hours

 ConditionsComfort  
Time TempWeatherWind HumidityBarometerVisibility
4:00 AM
Aug 20
66 °FPassing clouds.6 mph94%29.78 "Hg9 mi
3:00 AM66 °FPassing clouds.8 mph94%29.78 "Hg9 mi
2:00 AM66 °FPartly cloudy.7 mph94%29.79 "Hg9 mi
1:00 AM66 °FMostly cloudy.10 mph94%29.79 "Hg9 mi
12:00 AM64 °FOvercast.8 mph94%29.79 "Hg9 mi
11:00 PM
Aug 19
64 °FOvercast.6 mph94%29.80 "Hg9 mi
10:00 PM64 °FOvercast.7 mph94%29.78 "Hg9 mi
9:00 PM66 °FOvercast.7 mph94%29.79 "Hg9 mi
8:46 PM66 °FOvercast.8 mph94%29.76 "Hg9 mi
8:00 PM66 °FThunderstorms. Mostly cloudy.7 mph94%29.78 "Hg7 mi
7:01 PM73 °FThunderstorms. Cloudy.8 mph78%29.76 "Hg9 mi
6:51 PM73 °FThunderstorms. Cloudy.9 mph78%29.77 "Hg9 mi
6:00 PM77 °FLight rain. Broken clouds.10 mph69%29.75 "Hg9 mi
5:59 PM77 °FLight rain. Broken clouds.10 mph74%29.75 "Hg9 mi
5:00 PM79 °FPassing clouds.12 mph65%29.76 "Hg9 mi
4:00 PM79 °FPartly sunny.14 mph65%29.76 "Hg9 mi
3:00 PM79 °FPartly sunny.15 mph65%29.78 "Hg9 mi
2:00 PM79 °FPartly sunny.15 mph65%29.78 "Hg9 mi
1:00 PM77 °FPartly sunny.16 mph65%29.77 "Hg9 mi
12:00 PM75 °FScattered clouds.15 mph69%29.82 "Hg9 mi
11:00 AM72 °FScattered clouds.9 mph78%29.83 "Hg9 mi
10:00 AM66 °FPassing clouds.15 mph94%29.83 "Hg9 mi
9:00 AM64 °FMore clouds than sun.10 mph88%29.83 "Hg9 mi
8:00 AM63 °FPartly sunny.7 mph88%29.83 "Hg9 mi
7:00 AM61 °FMostly cloudy.9 mph94%29.82 "Hg9 mi
6:00 AM61 °FOvercast.7 mph94%29.83 "Hg9 mi
5:00 AM61 °FPassing clouds.7 mph94%29.83 "Hg9 mi
4:00 AM63 °FPassing clouds.7 mph88%29.83 "Hg9 mi
Weather by CustomWeather, © 2014

See weather overviewHow to use our weather pages